Regional Weather Roundup
Issued by NWS

Home | Current Version | Previous Version | Text Only | Print | Product List | Glossary Off
Versions: 1 2 3 4 5 6 7 8 9 10 11 12 13 14 15 16 17 18 19 20 21 22 23 24 25 26 27 28 29 30 31 32 33 34 35 36 37 38 39 40 41 42 43 44 45 46 47 48 49 50

000
ASUS43 KDTX 191010
RWRMI
MICHIGAN HOURLY REGIONAL WEATHER ROUNDUP
NATIONAL WEATHER SERVICE DETROIT/PONTIAC MI
600 AM EDT SAT APR 19 2014

NOTE: "FAIR" INDICATES FEW OR NO CLOUDS BELOW 12,000 FEET WITH NO
SIGNIFICANT WEATHER AND/OR OBSTRUCTION TO VISIBILITY.

MIZ047>049-052>055-059>063-066>070-074>076-081>083-191100-
SOUTHEAST LOWER MICHIGAN

CITY           SKY/WX    TMP DP  RH WIND       PRES   REMARKS
ADRIAN         CLEAR     34  28  79 NE8       30.39R
ALMA           CLEAR     28  25  87 NE3       30.44S
ANN ARBOR      CLEAR     33  27  78 NE7       30.40R
BAD AXE        CLEAR     29  27  92 N5        30.44S
DETROIT CITY   CLEAR     35  28  75 N5        30.42R
DETROIT        PTCLDY    35  28  75 N7        30.41R
FLINT          CLEAR     32  27  81 NE7       30.43R
GROSSE ILE     CLEAR     36  28  75 NE6       30.39R
HILLSDALE      CLEAR     36  31  82 E9G17     30.37R
HOWELL         CLEAR     31  28  86 CALM      30.40R

CITY           SKY/WX    TMP DP  RH WIND       PRES   REMARKS
JACKSON        CLEAR     33  27  78 NE6       30.39R
LAMBERTVILLE   CLEAR     36  30  80 NE3       30.39S
LANSING        CLEAR     31  28  89 NE5       30.41S
LAPEER         NOT AVBL
MASON          CLEAR     32  29  89 NE6       30.41R
MONROE         MOCLDY    36  28  75 N6        30.38R
MT. CLEMENS    CLEAR     30  27  90 N6        30.40R
PONTIAC        CLEAR     32  26  78 N7        30.39R
PORT HOPE        N/A     35  32  88 N8        30.43R
PORT HURON     CLEAR     32  28  86 N6        30.42R
TRI CITIES     CLEAR     30  25  81 N6        30.45R
YPSILANTI      CLEAR     35  27  72 NE7       30.41R
$$
MIZ043>046-050>051-056>058-064>065-071>073-077>080-191100-
SOUTHWEST LOWER MICHIGAN

CITY           SKY/WX    TMP DP  RH WIND       PRES   REMARKS
BATTLE CREEK   CLEAR     35  29  78 E10       30.38R
BENTON HARBOR  CLEAR     35  29  78 E9        30.36R
BIG RAPIDS     CLEAR     28  27  96 CALM      30.42R
COLDWATER      CLEAR     37  34  90 NE8       30.36R
HOLLAND        CLEAR     35  27  72 NE8       30.40S
GRAND RAPIDS   CLEAR     34  26  72 E9        30.41R
KALAMAZOO      CLEAR     36  30  79 NE6       30.38R
MARSHALL       CLEAR     33  28  83 NE8       30.38R
MUSKEGON       CLEAR     33  24  69 E8        30.42R
$$
MIZ016>042-191100-
NORTHERN LOWER MICHIGAN

CITY           SKY/WX    TMP DP  RH WIND       PRES   REMARKS
ALPENA         CLEAR     28  28 100 NW3       30.48R
BEAVER ISLAND  CLEAR     25  24  96 CALM      30.47S
BELLAIRE       CLEAR     24  22  94 CALM      30.46S
CADILLAC       CLEAR     24  23  97 CALM      30.40R
CHARLEVOIX     CLEAR     28  27  98 CALM      30.49F
FRANKFORT      SUNNY     26  25  94 CALM      30.46S
GAYLORD        CLOUDY    28  27  96 NE6       30.44R
GRAYLING       CLEAR     20  20  98 CALM      30.45S
HARBOR SPRINGS CLEAR     26  25  94 CALM      30.47R
HOUGHTON LAKE  CLEAR     24  23  96 E6        30.44R
MANISTEE       CLEAR     28  25  86 E6        30.45S
OSCODA         CLEAR     29  27  92 CALM      30.47R
PELLSTON       MOCLDY    24  21  88 CALM      30.49R
TRAVERSE CITY  CLEAR     26  23  88 CALM      30.46R
$$
MIZ007>008-015-191100-
EASTERN UPPER MICHIGAN

CITY           SKY/WX    TMP DP  RH WIND       PRES   REMARKS
KINROSS        CLOUDY    27  27 100 CALM      30.48R VSB 1/4
MACKINAC ISLAN FOG       28  28 100 NE6       30.47S VSB 1/2
NEWBERRY       FOG       24  23  97 CALM      30.46S VSB 1/4
S. S. MARIE    FOG       24  21  88 SW3       30.48R VSB 1/2
$$
MIZ004>006-011>014-085-191100-
CENTRAL UPPER MICHIGAN

CITY           SKY/WX    TMP DP  RH WIND       PRES   REMARKS
MANISTIQUE     CLEAR     26  24  94 CALM      30.46S
ESCANABA       MOCLDY    27  23  86 CALM      30.46S
MENOMINEE      PTCLDY    28  27  93 E3        30.45S
SAWYER-GWINN   CLOUDY    21  19  91 CALM      30.43S
$$
MIZ001>003-009>011-084-191100-
WESTERN UPPER MICHIGAN

CITY           SKY/WX    TMP DP  RH WIND       PRES   REMARKS
IRON MOUNTAIN  CLOUDY    26  24  92 SW3       30.42S
HOUGHTON       CLOUDY    29  24  82 E10       30.40S
COPPER HARBOR    N/A     27  24  89 S3        30.44S
IRONWOOD       CLOUDY    34  23  64 E10       30.29F
$$

ABBREVIATIONS USED IN REMARKS
   TC - TEMPERATURE IN CELSIUS
  WCI - WIND CHILL INDEX
   HX - HEAT INDEX
  VSB - VISIBILITY




USA.gov is the U.S. government's official web portal to all federal, state and local government web resources and services.